Henderson, KY

5:06 PM CDT on August 18, 2019 (GMT -0500)
Henderson City-County

Weather History for KEHR - June, 2019

Change the Weather History Date:

Wednesday, June 12, 2019

  Actual Average Record
Temperature  
Mean Temperature 64 °F -  
Max Temperature 75 °F 85 °F 97 °F (1953)
Min Temperature 54 °F 63 °F 49 °F (1937)
Growing Degree Days 14 (Base 50)    
Moisture  
Dew Point 53 °F    
Average Humidity 65    
Maximum Humidity 93    
Minimum Humidity 40    
Precipitation  
Precipitation 0.00 in - - ()
Sea Level Pressure  
Sea Level Pressure 29.93 in    
Wind  
Wind Speed 4 mph (West)    
Max Wind Speed 12 mph    
Max Gust Speed -    
Visibility 10 miles    
Events Rain    
Averages and records for this station are not official NWS values.
T = Trace of Precipitation, MM = Missing Value Source: NWS Daily Summary

Daily Weather History Graph

Daily Weather History Graph

Search for Another Location

Airport or City:

Astronomy

Jun. 12, 2019 Rise Set
Actual Time 5:28 AM CDT 8:13 PM CDT
Civil Twilight 4:56 AM CDT 8:44 PM CDT
Nautical Twilight 4:17 AM CDT 9:23 PM CDT
Astronomical Twilight 3:33 AM CDT 10:07 PM CDT
Moon 3:25 PM CDT (6/12) 2:36 AM CDT (6/12)
Length of Visible Light 15h 47m
Length of Day
14h 45m
Waxing Gibbous, 77% of the Moon is Illuminated
Jun 12
Waxing Gibbous
Jun 17
Full
Jun 25
Last Quarter
Jul 2
New
Jul 9
First Quarter

Hourly Weather History & Observations

Time (CDT) Temp. Dew Point Humidity Pressure Visibility Wind Dir Wind Speed Gust Speed Precip Events Conditions
12:56 AM 64.0 °F 48.9 °F 58% 30.06 in 8.0 mi ESE 3.5 mph - N/A   Clear
1:56 AM 57.9 °F 53.1 °F 84% 30.05 in 10.0 mi Calm Calm - N/A   Clear
2:56 AM 55.9 °F 53.1 °F 90% 30.02 in 10.0 mi Calm Calm - N/A   Clear
3:56 AM 55.0 °F 53.1 °F 93% 30.01 in 10.0 mi Calm Calm - N/A   Clear
4:56 AM 54.0 °F 52.0 °F 93% 30.01 in 10.0 mi Calm Calm - N/A   Clear
5:56 AM 55.0 °F 52.0 °F 89% 29.99 in 10.0 mi East 4.6 mph - N/A   Clear
6:56 AM 60.1 °F 55.0 °F 83% 29.99 in 10.0 mi West 3.5 mph - N/A   Clear
7:56 AM 64.9 °F 55.9 °F 73% 29.97 in 10.0 mi Calm Calm - N/A   Clear
8:56 AM 70.0 °F 52.0 °F 53% 29.96 in 10.0 mi East 4.6 mph - N/A   Clear
9:56 AM 70.0 °F 52.0 °F 53% 29.95 in 10.0 mi Calm Calm - N/A   Clear
10:10 AM 69.8 °F 51.8 °F 53% 29.95 in 10.0 mi Variable 3.5 mph - N/A   Partly Cloudy
10:56 AM 72.0 °F 52.0 °F 49% 29.95 in 10.0 mi WNW 5.8 mph - N/A   Unknown
11:56 AM 73.9 °F 51.1 °F 45% 29.93 in 10.0 mi WNW 5.8 mph - N/A   Clear
12:47 PM 75.2 °F 51.8 °F 44% 29.91 in 10.0 mi Variable 4.6 mph - N/A   Partly Cloudy
12:56 PM 75.0 °F 48.9 °F 40% 29.91 in 10.0 mi Variable 3.5 mph - N/A   Partly Cloudy
1:56 PM 75.9 °F 53.1 °F 45% 29.88 in 10.0 mi Variable 5.8 mph - N/A   Clear
2:56 PM 73.9 °F 51.1 °F 45% 29.87 in 10.0 mi West 5.8 mph - N/A   Clear
3:56 PM 73.0 °F 50.0 °F 44% 29.87 in 10.0 mi West 8.1 mph - N/A   Clear
4:56 PM 72.0 °F 51.1 °F 48% 29.86 in 10.0 mi West 6.9 mph - 0.00 in Rain Light Rain
5:56 PM 72.0 °F 54.0 °F 53% 29.84 in 10.0 mi West 8.1 mph - 0.00 in   Clear
6:56 PM 70.0 °F 53.1 °F 55% 29.84 in 10.0 mi West 11.5 mph - N/A   Partly Cloudy
7:56 PM 66.0 °F 55.0 °F 68% 29.85 in 10.0 mi West 11.5 mph - 0.00 in Rain Light Rain
8:56 PM 64.0 °F 55.0 °F 73% 29.86 in 10.0 mi West 9.2 mph - 0.00 in   Overcast
9:56 PM 64.0 °F 55.0 °F 73% 29.87 in 10.0 mi West 8.1 mph - N/A   Mostly Cloudy
10:56 PM 62.1 °F 57.0 °F 84% 29.87 in 10.0 mi West 8.1 mph - N/A   Mostly Cloudy
11:56 PM 60.1 °F 57.0 °F 90% 29.86 in 10.0 mi SW 6.9 mph - N/A   Partly Cloudy